[[{"header":{"parameterUnit":"m.s-1","parameterCategory":1,"la1":30.2991,"la2":30.254,"lo1":-89.0895,"lo2":-89.0444,"dy":0.0017,"dx":0.0017,"nx":28,"ny":28,"refTime":"2025-12-31T03:00:00:Z","depth":0,"parameterNumber":2,"parameterNumberName":"U-component_of_WINDS"},"data":[0,0,0,0,0,0,0,0,0,0,0,0,0,0,0,0,0,0,0,0,0,0,0,0,0,0,0,0,0,0,0,0,0,0,0,0,0,0,0,0,0,0,0,0,0,0,0,0,0,0,0,0,0,0,0,0,0,0,4.6162,4.6164,0,4.64,4.6402,4.6405,4.6368,4.6364,4.636,4.6356,4.6605,4.6615,4.6626,0,0,0,0,0,0,0,0,0,0,0,0,0,4.5679,4.5688,4.6161,4.6164,4.6167,4.6399,4.6402,4.6406,4.6369,4.6364,4.6359,4.6355,4.6602,4.6614,4.6627,0,0,0,0,0,0,0,0,0,0,0,0,0,4.59,4.5691,4.6161,4.6177,4.6181,4.6399,4.6403,4.6407,4.637,4.6364,4.6358,4.6352,4.6598,4.6613,4.6628,4.6847,0,0,4.6676,4.6683,0,0,0,0,0,0,0,0,4.5888,4.5918,4.6172,4.6176,4.6181,4.6348,4.6324,4.6555,4.6372,4.6298,4.6356,4.6349,4.6525,4.6546,4.6604,4.6859,4.6869,4.6678,4.6687,4.6694,4.6698,0,0,0,0,0,0,0,4.5872,4.5908,4.6256,4.6175,4.6181,4.6174,4.6198,4.6367,4.6443,4.6304,4.6302,4.6331,4.6526,4.6589,4.661,4.6873,4.6677,4.6691,4.6701,4.6707,4.7319,4.7326,0,0,0,0,0,0,4.5852,4.5895,4.6248,4.6263,4.6016,4.6187,4.6215,4.6301,4.6441,4.6457,4.6336,4.6328,4.6566,4.6592,4.6619,4.6884,4.6694,4.6708,4.6717,4.7312,4.7321,4.7328,0,0,0,0,0,0,4.5842,4.5884,4.6239,4.6079,4.6123,4.6202,4.6299,4.6308,4.6371,4.6465,4.6479,4.6386,4.6562,4.6597,4.679,4.6892,4.6715,4.673,4.7304,4.7315,4.7324,4.7416,0,0,0,0,0,0,4.5828,4.588,4.5963,4.6081,4.6132,4.6405,4.6305,4.6318,4.6398,4.639,4.6516,4.6531,4.656,4.6767,4.6806,4.691,4.6742,4.7295,4.7309,4.7321,4.7404,4.7428,4.7449,0,0,0,0,0,4.5811,4.5981,4.5968,4.601,4.6237,4.6411,4.644,4.6469,4.6406,4.6491,4.6551,4.6527,4.6874,4.6787,4.6831,4.6941,4.7289,4.7305,4.732,4.7394,4.7423,4.7448,0,0,0,0,0,0,4.5875,4.5996,4.5983,4.6196,4.6293,4.6404,4.6512,4.6499,4.6618,4.6606,4.6638,4.6667,4.6863,4.6922,4.6822,4.716,4.7073,4.7098,4.7115,4.7143,4.7165,4.7147,4.6755,0,0,0,0,0,4.5914,4.6044,4.6143,4.6321,4.637,4.6433,4.651,4.6524,4.6627,4.6668,4.6742,4.6844,4.6977,4.7063,4.719,4.7412,4.744,4.751,4.7532,4.755,4.7571,4.7693,4.7726,4.7379,4.7379,4.7379,0,0,4.5995,4.6078,4.6158,4.6336,4.6413,4.6548,4.6468,4.6614,4.6715,4.6691,4.6878,4.6936,4.7052,4.7261,4.7356,4.7316,4.7673,4.757,4.7583,4.7595,4.7712,4.7745,4.7774,4.7389,4.7388,4.7386,0,0,4.6213,4.6288,4.6444,4.6523,4.664,4.668,4.6718,4.6831,4.6868,4.7056,4.704,4.7162,4.7389,4.7472,4.7544,4.7793,4.7776,4.7834,4.795,4.8069,4.8096,4.812,4.8209,4.8241,4.7855,4.7855,4.7855,0,4.63,4.6502,4.6527,4.6675,4.6754,4.6736,4.6895,4.6971,4.7124,4.718,4.7131,4.7416,4.7493,4.7721,4.7781,4.784,4.7885,4.782,4.8089,4.8114,4.8137,4.8223,4.8256,4.7861,4.7861,4.786,4.7859,0,4.6603,4.6743,4.6856,4.7002,4.7094,4.7247,4.7296,4.7387,4.7392,4.7438,4.763,4.7721,4.7866,4.7921,4.7929,4.8151,4.8122,4.8082,4.7995,4.8176,4.8257,4.829,4.787,4.7868,4.7866,4.7865,0,0,4.6869,4.7026,4.7067,4.7133,4.7261,4.737,4.7523,4.7663,4.7739,4.7846,4.7975,4.8168,4.813,4.8212,4.823,4.8334,4.8525,4.828,4.8283,4.8322,4.8775,4.8805,4.8842,4.8514,4.852,4.8525,4.8765,0,4.7099,4.7366,4.7393,4.7633,4.7763,4.7747,4.788,4.7974,4.8021,4.8139,4.8191,4.8327,4.8268,4.8317,4.8419,4.848,4.8616,4.8463,4.8635,4.8641,4.8606,4.8884,4.8916,4.9138,4.8797,4.8802,4.8806,0,4.7403,4.7516,4.7768,4.7877,4.7932,4.8051,4.8181,4.8294,4.84,4.8427,4.8518,4.8521,4.868,4.8587,4.8806,4.8701,4.8773,4.8814,4.8823,4.8841,4.8735,4.8909,4.921,4.9243,4.8856,4.8852,4.8848,0,4.7571,4.7787,4.7965,4.8022,4.8154,4.8238,4.8297,4.8396,4.8479,4.8593,4.8647,4.8779,4.8852,4.8955,4.8994,4.8923,4.9212,4.9122,4.924,4.9239,4.9302,4.9297,4.9618,4.9348,4.9348,4.9347,4.9346,0,4.7825,4.798,4.8042,4.8152,4.8326,4.8356,4.8527,4.8583,4.8671,4.8793,4.8788,4.8903,4.8947,4.907,4.9102,4.9279,4.9312,4.9339,4.9345,4.9339,4.9336,4.9387,4.9373,4.9356,4.9354,4.9352,4.9351,0,4.8043,4.8091,4.8284,4.8392,4.8423,4.8546,4.8639,4.8746,4.8791,4.8945,4.8983,4.9054,4.9197,4.9246,4.9421,4.9442,4.9648,4.9642,4.9612,4.9613,4.9728,4.9716,5.0094,5.0145,4.9841,4.9844,4.9846,0,4.8202,4.832,4.844,4.852,4.8582,4.8711,4.8795,4.8829,4.8916,4.9045,4.9137,4.9279,4.9394,4.9624,4.9693,4.9826,4.9823,4.9946,4.9843,4.9833,4.9825,4.9817,4.9829,4.9965,4.9968,4.9971,4.9973,0,4.8479,4.8497,4.8616,4.8744,4.8843,4.8946,4.9046,4.9112,4.9161,4.926,4.9405,4.9494,4.9671,4.9813,4.9949,5.0011,5.0002,5.0005,5.0039,5.0034,5.0011,5.0025,4.9664,4.9996,4.9994,4.9992,4.9991,4.999,4.8673,4.8777,4.8878,4.9011,4.9089,4.9182,4.9287,4.9344,4.9465,4.9611,4.9624,4.9781,4.9884,5.0066,5.0134,5.0259,5.0224,5.0274,5.0287,5.0299,5.0307,4.9991,5.0284,5.0283,5.0283,5.0282,5.0282,0,4.895,4.9013,4.9135,4.9274,4.9379,4.9358,4.9467,4.9556,4.9694,4.979,4.9902,5.007,5.0206,5.0285,5.0422,5.0506,5.0505,5.0541,5.0536,5.055,5.033,5.0286,5.054,5.054,5.054,5.054,5.054,5.054,4.9106,4.9282,4.9311,4.9525,4.9588,4.974,4.9804,4.989,4.9967,5.0153,5.0265,5.0315,5.0405,5.0548,5.0673,5.0692,5.0743,5.0783,5.0799,5.0592,5.0566,5.054,5.05,5.0794,5.0794,5.1009,5.1011,5.1012]},{"header":{"parameterUnit":"m.s-1","parameterCategory":1,"la1":30.2991,"la2":30.254,"lo1":-89.0895,"lo2":-89.0444,"dy":0.0017,"dx":0.0017,"nx":28,"ny":28,"refTime":"2025-12-31T03:00:00:Z","depth":0,"parameterNumber":3,"parameterNumberName":"V-component_of_WINDS"},"data":[0,0,0,0,0,0,0,0,0,0,0,0,0,0,0,0,0,0,0,0,0,0,0,0,0,0,0,0,0,0,0,0,0,0,0,0,0,0,0,0,0,0,0,0,0,0,0,0,0,0,0,0,0,0,0,0,0,0,-1.0122,-1.0122,0,-1.0187,-1.0187,-1.0188,-1.0217,-1.0217,-1.0217,-1.0217,-1.0283,-1.0285,-1.0287,0,0,0,0,0,0,0,0,0,0,0,0,0,-1.0023,-1.0025,-1.0122,-1.0122,-1.0123,-1.0186,-1.0187,-1.0188,-1.0217,-1.0217,-1.0217,-1.0216,-1.0282,-1.0285,-1.0287,0,0,0,0,0,0,0,0,0,0,0,0,0,-1.0075,-1.0025,-1.0121,-1.0145,-1.0148,-1.0186,-1.0187,-1.0188,-1.0217,-1.0217,-1.0217,-1.0216,-1.0282,-1.0284,-1.0287,-1.0307,0,0,-1.0295,-1.0297,0,0,0,0,0,0,0,0,-1.0072,-1.0078,-1.0141,-1.0144,-1.0147,-1.0193,-1.0177,-1.0228,-1.0217,-1.0191,-1.0217,-1.0216,-1.0253,-1.0258,-1.0271,-1.031,-1.0313,-1.0296,-1.0297,-1.0299,-1.0299,0,0,0,0,0,0,0,-1.0068,-1.0075,-1.0147,-1.0142,-1.0145,-1.0153,-1.016,-1.0187,-1.0222,-1.0193,-1.0195,-1.0202,-1.0255,-1.0268,-1.0273,-1.0314,-1.0296,-1.0298,-1.03,-1.0301,-1.0373,-1.0373,0,0,0,0,0,0,-1.006,-1.0072,-1.0145,-1.0149,-1.0108,-1.0155,-1.0163,-1.0179,-1.0222,-1.0228,-1.0202,-1.0204,-1.0263,-1.0269,-1.0275,-1.0301,-1.0299,-1.0301,-1.0303,-1.0373,-1.0373,-1.0373,0,0,0,0,0,0,-1.0058,-1.0067,-1.0143,-1.0111,-1.0122,-1.0156,-1.0174,-1.018,-1.0193,-1.0229,-1.0235,-1.0209,-1.0264,-1.0271,-1.0299,-1.0304,-1.0302,-1.0305,-1.0372,-1.0373,-1.0373,-1.0354,0,0,0,0,0,0,-1.0055,-1.0066,-1.0073,-1.0111,-1.0123,-1.0165,-1.0174,-1.0181,-1.0198,-1.02,-1.0237,-1.0243,-1.0264,-1.0295,-1.0302,-1.0308,-1.0307,-1.0372,-1.0373,-1.0373,-1.0354,-1.0353,-1.0353,0,0,0,0,0,-1.0052,-1.0065,-1.0074,-1.0082,-1.0133,-1.0165,-1.0172,-1.0196,-1.0198,-1.0206,-1.0229,-1.0242,-1.0302,-1.0297,-1.0305,-1.0312,-1.0372,-1.0372,-1.0373,-1.0354,-1.0354,-1.0353,0,0,0,0,0,0,-1.0027,-1.0071,-1.008,-1.0107,-1.0132,-1.017,-1.0181,-1.0194,-1.0219,-1.022,-1.0248,-1.0256,-1.0282,-1.03,-1.0293,-1.0334,-1.0338,-1.034,-1.0321,-1.0321,-1.032,-1.0315,-1.0309,0,0,0,0,0,-1.0024,-1.0046,-1.0083,-1.0103,-1.0115,-1.0146,-1.0161,-1.0177,-1.0204,-1.0215,-1.024,-1.0266,-1.0291,-1.0307,-1.0332,-1.0357,-1.0366,-1.0366,-1.0365,-1.0365,-1.0366,-1.0381,-1.0382,-1.0375,-1.0375,-1.0375,0,0,-1.0019,-1.0046,-1.0058,-1.0099,-1.012,-1.0143,-1.0155,-1.0178,-1.0195,-1.0219,-1.0246,-1.0266,-1.0297,-1.0323,-1.0336,-1.0339,-1.037,-1.0365,-1.0365,-1.0367,-1.0382,-1.0383,-1.0383,-1.0376,-1.0375,-1.0375,0,0,-1.0022,-1.0044,-1.0063,-1.0085,-1.0117,-1.0138,-1.0142,-1.0179,-1.0192,-1.0221,-1.0239,-1.026,-1.0302,-1.0324,-1.034,-1.0352,-1.0365,-1.0359,-1.0356,-1.0371,-1.0371,-1.0372,-1.0376,-1.0377,-1.0361,-1.0361,-1.0361,0,-1.0012,-1.0046,-1.0071,-1.0093,-1.0111,-1.0134,-1.0153,-1.0173,-1.0212,-1.0224,-1.0227,-1.0281,-1.0303,-1.0335,-1.0338,-1.0351,-1.0357,-1.0355,-1.0369,-1.037,-1.0371,-1.0375,-1.0377,-1.036,-1.036,-1.036,-1.036,0,-1.0032,-1.0056,-1.0067,-1.0104,-1.0123,-1.0144,-1.0172,-1.0189,-1.0203,-1.0223,-1.0252,-1.028,-1.0312,-1.0321,-1.0335,-1.0355,-1.0356,-1.0363,-1.0368,-1.037,-1.0375,-1.0377,-1.0359,-1.0359,-1.0359,-1.036,0,0,-1.002,-1.0072,-1.0075,-1.0093,-1.0131,-1.015,-1.0172,-1.0202,-1.0216,-1.0242,-1.0262,-1.0297,-1.0305,-1.0324,-1.0341,-1.0353,-1.0361,-1.036,-1.0361,-1.0359,-1.0386,-1.038,-1.0381,-1.037,-1.0371,-1.0371,-1.0383,0,-1.0028,-1.0068,-1.0092,-1.0123,-1.0145,-1.0168,-1.0187,-1.0212,-1.0232,-1.0254,-1.0276,-1.0301,-1.0309,-1.032,-1.0334,-1.0357,-1.0367,-1.0357,-1.0389,-1.039,-1.038,-1.0384,-1.0377,-1.0387,-1.0385,-1.0385,-1.0386,0,-1.0043,-1.0069,-1.0101,-1.0137,-1.0148,-1.0165,-1.0195,-1.0216,-1.0245,-1.0259,-1.028,-1.0297,-1.0322,-1.0325,-1.036,-1.0352,-1.0367,-1.038,-1.0381,-1.0385,-1.0387,-1.0388,-1.0391,-1.0392,-1.0389,-1.0389,-1.0388,0,-1.0031,-1.0074,-1.01,-1.0114,-1.0156,-1.0168,-1.0186,-1.0216,-1.0233,-1.0259,-1.0271,-1.03,-1.0316,-1.0338,-1.0363,-1.0363,-1.0396,-1.04,-1.0408,-1.0407,-1.0413,-1.0412,-1.0419,-1.0423,-1.0423,-1.0423,-1.0423,0,-1.0037,-1.0056,-1.0095,-1.0111,-1.0133,-1.016,-1.0182,-1.0202,-1.0228,-1.0249,-1.027,-1.0288,-1.032,-1.0343,-1.0363,-1.0389,-1.0396,-1.0407,-1.0412,-1.0405,-1.0404,-1.0415,-1.0415,-1.0423,-1.0423,-1.0423,-1.0423,0,-1.0028,-1.0054,-1.0084,-1.0122,-1.0132,-1.0146,-1.0179,-1.0196,-1.0216,-1.0242,-1.0249,-1.0282,-1.031,-1.0337,-1.0375,-1.0388,-1.0414,-1.0421,-1.0404,-1.0406,-1.0412,-1.0411,-1.0426,-1.043,-1.0431,-1.0431,-1.0431,0,-1.003,-1.0045,-1.0085,-1.01,-1.0118,-1.0142,-1.016,-1.0187,-1.0205,-1.024,-1.0252,-1.0282,-1.0307,-1.035,-1.0378,-1.0407,-1.0414,-1.0418,-1.0419,-1.0411,-1.0414,-1.0413,-1.0415,-1.0417,-1.0416,-1.0416,-1.0416,0,-1.0031,-1.0044,-1.0068,-1.0098,-1.0118,-1.0142,-1.0168,-1.0179,-1.0211,-1.023,-1.0259,-1.0278,-1.0317,-1.0346,-1.0378,-1.0397,-1.0412,-1.0416,-1.0419,-1.0412,-1.0402,-1.0407,-1.0402,-1.0415,-1.0415,-1.0415,-1.0415,-1.0415,-1.0028,-1.0043,-1.0073,-1.01,-1.0122,-1.0145,-1.0162,-1.0185,-1.021,-1.0243,-1.0258,-1.0287,-1.0317,-1.0362,-1.0381,-1.0405,-1.0408,-1.0413,-1.0414,-1.0415,-1.0413,-1.0398,-1.0411,-1.0411,-1.0411,-1.0411,-1.0411,0,-1.003,-1.0051,-1.0075,-1.011,-1.0131,-1.0144,-1.0172,-1.0189,-1.0214,-1.0241,-1.0265,-1.0299,-1.0327,-1.0357,-1.0388,-1.0401,-1.0408,-1.0408,-1.0407,-1.0411,-1.0408,-1.0402,-1.0401,-1.0401,-1.0401,-1.0401,-1.0401,-1.0401,-1.0034,-1.006,-1.0076,-1.0113,-1.0134,-1.0163,-1.0178,-1.02,-1.0221,-1.0257,-1.0281,-1.03,-1.0329,-1.0361,-1.0388,-1.0397,-1.0407,-1.0404,-1.0414,-1.0411,-1.0411,-1.0412,-1.0407,-1.0406,-1.0406,-1.0415,-1.0415,-1.0416]}]]